AC1EG Weather Reports


time (UTC)temp
F
wind
direction
speed
knots
gust
knots
rain 1hr
in
rain 24hr
in
rain mn
in
humidity
%
barometer
mb
20260507210023 67 317 2.6 8.7 0.00 0.00 0.00 27 1016.8
20260507204521 68 311 3.5 7.8 0.00 0.00 0.00 27 1017.1
20260507203026 67 323 1.7 7.0 0.00 0.00 0.00 28 1017.4
20260507201521 67 265 1.7 8.7 0.00 0.02 0.00 28 1017.6
20260507200029 67 317 1.7 11.3 0.00 0.03 0.00 30 1017.8
20260507194522 66 23 6.1 11.3 0.00 0.03 0.00 25 1018.0
20260507193024 67 329 1.7 10.4 0.00 0.04 0.00 28 1018.1
20260507191524 66 254 3.5 8.7 0.00 0.05 0.00 28 1018.1
20260507190025 66 288 1.7 7.0 0.00 0.16 0.00 27 1018.3
20260507184522 64 316 0.9 5.2 0.00 0.17 0.00 25 1018.3
20260507183035 64 205 1.7 6.1 0.00 0.17 0.00 26 1018.3
20260507181522 63 9 0.0 3.5 0.00 0.17 0.00 25 1018.3
20260507180036 62 304 0.9 3.5 0.00 0.17 0.00 26 1018.7
20260507174531 63 5 1.7 9.6 0.00 0.17 0.00 26 1018.7
20260507173024 63 247 0.0 5.2 0.00 0.17 0.00 24 1019.1
20260507171522 62 275 0.9 3.5 0.00 0.17 0.00 22 1019.2
20260507170022 61 352 0.9 5.2 0.00 0.17 0.00 27 1019.2
20260507164524 59 187 0.0 3.5 0.00 0.17 0.00 27 1019.3
20260507163025 58 267 0.9 4.3 0.00 0.17 0.00 30 1019.3
20260507161538 56 250 1.7 4.3 0.00 0.17 0.00 31 1019.7
20260507160034 55 304 2.6 7.0 0.00 0.17 0.00 34 1019.6
20260507154532 53 304 3.5 7.8 0.00 0.17 0.00 35 1019.7
20260507153026 52 313 2.6 5.2 0.00 0.17 0.00 39 1019.7
20260507151535 50 336 2.6 5.2 0.00 0.17 0.00 43 1019.9
20260507150024 49 338 1.7 8.7 0.00 0.17 0.00 46 1019.9
20260507144524 47 317 2.6 7.0 0.00 0.17 0.00 48 1019.8
20260507143025 45 329 3.5 7.0 0.00 0.17 0.00 52 1019.8
20260507141526 42 301 2.6 7.0 0.00 0.17 0.00 56 1019.8
20260507140026 40 360 0.0 3.5 0.00 0.17 0.00 59 1019.7
20260507134535 39 16 1.7 3.5 0.00 0.17 0.00 62 1019.7
20260507133024 37 34 1.7 3.5 0.00 0.17 0.00 62 1019.4
20260507131530 36 27 0.0 3.5 0.00 0.17 0.00 63 1019.2
20260507130026 35 36 0.9 3.5 0.00 0.17 0.00 63 1019.2
20260507124524 34 26 0.9 2.6 0.00 0.17 0.00 64 1018.9
20260507123028 33 40 0.9 1.7 0.00 0.17 0.00 65 1019.0
20260507121526 33 21 0.9 4.3 0.00 0.17 0.00 64 1018.9
20260507120025 32 35 0.9 4.3 0.00 0.17 0.00 65 1018.9
20260507114529 31 30 0.9 4.3 0.00 0.17 0.00 67 1018.9
20260507113024 30 26 1.7 4.3 0.00 0.17 0.00 71 1019.1
20260507111524 28 22 1.7 2.6 0.00 0.17 0.00 76 1019.0
20260507110022 28 67 0.0 1.7 0.00 0.17 0.00 76 1019.1
20260507104525 29 67 0.0 0.0 0.00 0.17 0.00 76 1019.1
20260507103027 29 67 0.0 0.9 0.00 0.17 0.00 76 1018.9
20260507101524 29 92 0.0 0.9 0.00 0.17 0.00 77 1019.2
20260507100028 29 92 0.0 0.9 0.00 0.17 0.00 78 1019.3
20260507094522 29 92 0.0 1.7 0.00 0.17 0.00 79 1019.2
20260507093023 29 20 0.0 0.9 0.00 0.17 0.00 82 1019.3
20260507091524 29 20 0.0 3.5 0.00 0.17 0.00 85 1019.3
20260507090035 28 355 2.6 4.3 0.00 0.17 0.00 87 1019.5
20260507084533 28 30 0.9 3.5 0.00 0.17 0.00 88 1019.5
20260507083024 28 22 0.0 2.6 0.00 0.17 0.00 89 1019.5
20260507081524 28 14 0.0 1.7 0.00 0.17 0.00 89 1019.8
20260507080022 28 22 0.0 0.0 0.00 0.17 0.00 88 1019.8
20260507074536 28 22 0.0 2.6 0.00 0.17 0.00 88 1020.0
20260507073022 28 26 0.9 2.6 0.00 0.17 0.00 88 1020.1
20260507071522 29 52 0.0 0.9 0.00 0.17 0.00 88 1020.2
20260507070022 29 52 0.0 0.9 0.00 0.17 0.00 88 1020.2
20260507064524 29 82 0.0 0.9 0.00 0.17 0.00 88 1020.4
20260507063025 29 96 0.0 0.9 0.00 0.17 0.00 88 1020.3
20260507061522 29 96 0.0 0.9 0.00 0.17 0.00 87 1020.3
20260507060020 30 96 0.0 0.0 0.00 0.17 0.00 87 1020.4
20260507054522 30 96 0.0 1.7 0.00 0.17 0.17 87 1020.2
20260507053022 30 128 0.0 0.9 0.00 0.17 0.17 87 1020.2
20260507051533 30 136 0.0 0.9 0.00 0.17 0.17 86 1020.2
20260507050021 31 136 0.0 0.0 0.00 0.17 0.17 86 1020.0
20260507044523 31 136 0.0 0.9 0.00 0.17 0.17 86 1020.2
20260507043020 31 136 0.0 1.7 0.00 0.17 0.17 86 1020.2
20260507041519 32 134 0.0 1.7 0.00 0.17 0.17 85 1020.3
20260507040022 32 112 0.0 3.5 0.00 0.17 0.17 84 1020.3
20260507034534 32 134 0.0 1.7 0.00 0.17 0.17 83 1020.2
20260507033022 32 142 0.0 1.7 0.00 0.17 0.17 81 1020.1
20260507031520 32 61 0.0 1.7 0.00 0.17 0.17 80 1020.1
20260507030020 33 157 0.0 0.9 0.00 0.17 0.17 79 1019.9
20260507024531 33 190 0.0 0.9 0.00 0.17 0.17 78 1019.8
20260507023018 34 276 0.0 0.9 0.00 0.17 0.17 77 1019.7
20260507021519 34 215 0.9 2.6 0.00 0.17 0.17 75 1019.8
20260507020020 35 219 0.0 3.5 0.00 0.18 0.17 74 1019.7
20260507014533 35 219 0.9 4.3 0.00 0.18 0.17 73 1019.5
20260507013020 36 213 0.9 4.3 0.00 0.18 0.17 72 1019.4
20260507011535 37 134 0.9 5.2 0.00 0.18 0.17 71 1019.4
20260507010019 37 205 2.6 5.2 0.00 0.19 0.17 70 1019.4
20260507004517 38 211 1.7 6.1 0.00 0.19 0.17 69 1019.2
20260507003020 38 200 2.6 6.1 0.00 0.19 0.17 68 1019.1
20260507001519 39 192 1.7 6.1 0.00 0.20 0.17 66 1019.1
20260507000019 40 201 1.7 6.1 0.00 0.20 0.17 64 1019.1
20260506234520 40 173 2.6 6.1 0.00 0.20 0.17 66 1019.0
20260506233018 40 146 0.9 4.3 0.00 0.21 0.17 65 1019.1
20260506231523 40 229 0.0 2.6 0.00 0.21 0.17 66 1019.2
20260506230022 40 36 0.9 2.6 0.00 0.22 0.17 68 1019.2
20260506224521 40 252 0.0 3.5 0.00 0.22 0.17 67 1019.1
20260506223017 40 331 0.9 4.3 0.00 0.23 0.17 68 1019.1
20260506221519 40 344 0.0 3.5 0.00 0.23 0.17 67 1019.3
20260506220022 40 328 0.9 3.5 0.00 0.24 0.17 75 1019.3
20260506214519 38 315 1.7 5.2 0.00 0.24 0.17 72 1019.5
20260506213020 38 335 1.7 7.8 0.00 0.24 0.17 73 1019.5
20260506211519 37 38 4.3 9.6 0.02 0.25 0.17 72 1019.5